パーライン-ムルコス彗星

18D/Perrine-Mrkos (2002)

English version
Home page
Updated on August 20, 2000

---------------------------------------------------------------------

・ プロフィール

・ 軌道要素

Epoch 2002 Sept. 3.0 TT = JDT 2452520.5  
T 2002 Sept. 10.39279 TT                                Muraoka 
q   1.2872456            (2000.0)            P               Q
n   0.14606442     Peri.  166.64401     +0.66972702     -0.69289213
a   3.5708622      Node   240.55718     +0.65003227     +0.72092851
e   0.6395141      Incl.   17.86433     +0.35905957     -0.01275059
P   6.75
From 17 observations 1961-1968, mean residual 1".84.


Epoch 2002 Sept. 3.0 TT = JDT 2452520.5  
T 2002 Sept. 9.88889 TT                                 Muraoka 
q   1.2871999            (2000.0)            P               Q
n   0.14608910     Peri.  166.61105     +0.67013315     -0.69250182
a   3.5704600      Node   240.55661     +0.64961171     +0.72130720
e   0.6394863      Incl.   17.86399     +0.35906293     -0.01253592
P   6.75
From 18 observations 1691-(1975), mean residual 1".53.
Nongravitational
   parameters A1 = +1.22 +/- 0.28, A2 = -0.0190 +/- 0.0011.

・ 星図

・ 光度変化

        m1 = 18.0 + 5 logΔ + 20.0 log r

---------------------------------------------------------------------

軌道要素は村岡健治氏の計算によるものです。
星図は StellaNavigator Ver.2.0 for Windows (アストロアーツ 編著 / アスキー出版局刊) で作成したものです。
光度グラフはComet for Windowsで作成したものです。

---------------------------------------------------------------------

Copyright(C) Seiichi Yoshida (comet@aerith.net). All rights reserved.